• MPC Preparation (Info)

  • MPEC 2016-O144: 2014 JQ80

    The following Minor Planet Electronic Circular may be linked-to from your own Web pages, but must not otherwise be redistributed electronically.

    A form allowing access to any MPEC is at the bottom of this page.


    Read MPEC 2016-O143 Read MPEC 2016-O145


    M.P.E.C. 2016-O144                               Issued 2016 July 17, 08:09 UT
    
         The Minor Planet Electronic Circulars contain information on unusual
             minor planets and routine data on comets.  They are published
        on behalf of Division F of the International Astronomical Union by the
              Minor Planet Center, Smithsonian Astrophysical Observatory,
                              Cambridge, MA 02138, U.S.A.
    
                 Prepared using the Tamkin Foundation Computer Network
    
                                  MPC@CFA.HARVARD.EDU
                URL https://www.minorplanetcenter.net/    ISSN 1523-6714
    
                                       2014 JQ80
    
    Observations:
         K14J80Q  C2013 04 13.47487 15 15 32.311-10 36 28.49         22.0 wLEO144F51
         K14J80Q  C2013 04 13.48874 15 15 32.244-10 36 28.42         22.2 wLEO144F51
         K14J80Q  C2013 04 13.50264 15 15 32.175-10 36 28.07         22.0 wLEO144F51
         K14J80Q  C2013 04 13.51651 15 15 32.104-10 36 27.52         21.7 wLEO144F51
         K14J80Q* C2014 05 08.41961 15 22 07.015-11 11 46.23         21.6 iLEO144F51
         K14J80Q  C2014 05 08.43183 15 22 06.967-11 11 45.71         21.7 iLEO144F51
         K14J80Q  C2014 05 08.44405 15 22 06.896-11 11 45.77         21.7 iLEO144F51
         K14J80Q  C2014 05 08.45626 15 22 06.812-11 11 45.34         21.6 iLEO144F51
         K14J80Q  C2014 05 10.42953 15 21 54.732-11 11 00.46         21.6 iLEO144F51
         K14J80Q  C2014 05 10.44151 15 21 54.646-11 11 00.07         21.6 iLEO144F51
         K14J80Q  C2014 05 10.45348 15 21 54.596-11 10 59.80         21.5 iLEO144F51
         K14J80Q  C2014 05 22.41311 15 20 41.452-11 06 46.55         22.0 wLEO144F51
         K14J80Q  C2014 05 22.42690 15 20 41.382-11 06 46.17         22.1 wLEO144F51
         K14J80Q  C2014 05 22.45377 15 20 41.211-11 06 45.61         22.0 wLEO144F51
         K14J80Q  C2014 05 24.36641 15 20 29.683-11 06 09.00         22.1 wLEO144F51
         K14J80Q  C2014 05 24.37905 15 20 29.601-11 06 08.86         21.8 wLEO144F51
         K14J80Q  C2014 05 24.43311 15 20 29.264-11 06 07.79         22.0 wLEO144F51
         K14J80Q  C2014 05 24.44574 15 20 29.187-11 06 07.69         21.9 wLEO144F51
         K14J80Q  C2014 06 21.34532 15 17 59.229-10 59 57.33         22.3 wLEO144F51
         K14J80Q  C2014 06 21.35796 15 17 59.173-10 59 56.91         22.5 wLEO144F51
         K14J80Q  C2014 06 21.37058 15 17 59.111-10 59 56.88         22.4 wLEO144F51
         K14J80Q  C2015 01 26.65029 15 34 24.646-12 22 54.13         22.2 wLEO144F51
         K14J80Q  C2015 01 26.65361 15 34 24.662-12 22 54.35         22.6 wLEO144F51
         K14J80Q  C2015 01 26.65691 15 34 24.664-12 22 54.13         22.6 wLEO144F51
         K14J80Q  C2015 01 26.66024 15 34 24.686-12 22 54.01         22.2 wLEO144F51
    
    Observer details:
    F51 Pan-STARRS 1, Haleakala.  Observers B. Gibson, T. Goggia, N. Primak,
        A. Schultz, M. Willman.  Measurers K. Chambers, S. Chastel, Y.-T. Chen,
        L. Denneau, H. Flewelling, M. Holman, M. Huber, R. Jedicke, M. Lackner,
        E. Lilly, H.-W. Lin, E. Magnier, M. Micheli, M. Payne, P. Veres,
        R. Wainscoat, C. Waters, R. Weryk.  1.8-m Ritchey-Chretien + CCD.
    
    Orbital elements:
    2014 JQ80
    Epoch 2016 July 31.0 TT = JDT 2457600.5                 MPC
    M  18.11400              (2000.0)            P               Q
    n   0.00394204     Peri.   97.10415     -0.88287877     +0.45104811
    a  39.6876593      Node   109.77923     -0.46669937     -0.81186828
    e   0.2231932      Incl.    7.98344     -0.05212270     -0.37070945
    P 250              H    7.0           G   0.15           U   4
    Residuals in seconds of arc
    130413 F51  0.1-  0.1+    140510 F51  0.2-  0.0     140621 F51  0.1-  0.3-
    130413 F51  0.0   0.2-    140510 F51  0.1+  0.0     140621 F51  0.0   0.0
    130413 F51  0.0   0.2-    140522 F51  0.0   0.1+    140621 F51  0.1-  0.1-
    130413 F51  0.1+  0.0     140522 F51  0.2+  0.2+    150126 F51  0.0   0.0
    140508 F51  0.3-  0.0     140522 F51  0.2+  0.2+    150126 F51  0.0   0.3-
    140508 F51  0.1+  0.3+    140524 F51  0.1+  0.2+    150126 F51  0.1-  0.0
    140508 F51  0.2+  0.1-    140524 F51  0.0   0.1+    150126 F51  0.0   0.1+
    140508 F51  0.1+  0.1+    140524 F51  0.0   0.1+
    140510 F51  0.1-  0.2-    140524 F51  0.0   0.0
    
    Ephemeris:
    2014 JQ80                a,e,i = 39.69, 0.22, 8                  q = 30.830
    Date    TT    R. A. (2000) Decl.     Delta      r     Elong.  Phase     V
    2016 06 17    15 36 06.1 -12 28 46  30.6621 31.5290   148.1     1.0    22.1
    ...
    2016 07 02    15 34 57.7 -12 27 16  30.8217 31.5335   133.8     1.3    22.1
    ...
    2016 07 10    15 34 29.3 -12 27 11  30.9261 31.5359   126.1     1.5    22.1
    ...
    2016 07 16    15 34 12.4 -12 27 27  31.0115 31.5377   120.4     1.6    22.2
    2016 07 17    15 34 09.9 -12 27 32  31.0263 31.5380   119.4     1.6    22.2
    2016 07 18    15 34 07.6 -12 27 37  31.0412 31.5383   118.5     1.6    22.2
    ...
    2016 07 24    15 33 55.8 -12 28 17  31.1334 31.5401   112.7     1.7    22.2
    ...
    2016 08 01    15 33 46.7 -12 29 38  31.2624 31.5425   105.1     1.8    22.2
    ...
    2016 08 16    15 33 50.7 -12 33 31  31.5154 31.5470    90.9     1.8    22.2
    
    A. U. Tomatic                (C) Copyright 2016 MPC           M.P.E.C. 2016-O144
    

    Read MPEC 2016-O143 Read MPEC 2016-O145


    MPEC number:

    Enter an MPEC number in one of the following forms:

    • 1997-B01 (the full form)
    • J97B01 (the packed version of the full form)
    • B01 (the abbreviated form)